POPACS 2

Last updated on Sun Jun 21 2026 00:03:50 GMT+0000 (Coordinated Universal Time)

1 39269U 13055E 26171.33026743 .00012847 00000+0 21673-3 0 9991 2 39269 80.9912 140.5946 0416725 183.6856 176.1273 14.91284733663689
UTC large
Height (km)
Speed (km/s)
/
Latitude / Longitude
Inclination (degrees)
Orbital Period (minutes)
Azimuth
Elevation
Range (km)
Doppler Factor

Next 0 passes for location: London (51.5072 / 0.1276)

No passes found over London.
POPACS 2